EW0860 Weather Reports


Display with metric or nautical units.
time (UTC)temp
F
wind
direction
speed
MPH
gust
MPH
rain 1hr
in
rain 24hr
in
rain mn
in
humidity
%
barometer
mb
20260510174555 66 320 1.0 7.0 0.00 0.00 0.00 30 1019.3
20260510173045 66 4 5.0 9.0 0.00 0.00 0.00 32 1019.2
20260510171544 66 57 4.0 11.0 0.00 0.00 0.00 34 1019.1
20260510170043 65 346 3.0 9.0 0.00 0.00 0.00 34 1019.1
20260510164543 65 350 5.0 10.0 0.00 0.00 0.00 32 1018.9
20260510163043 65 35 3.0 11.0 0.00 0.00 0.00 34 1018.8
20260510161539 65 62 4.0 11.0 0.00 0.00 0.00 34 1018.9
20260510160041 63 49 3.0 8.0 0.00 0.00 0.00 36 1019.2
20260510154537 63 60 3.0 8.0 0.00 0.00 0.00 35 1019.0
20260510153036 62 14 4.0 9.0 0.00 0.00 0.00 36 1018.8
20260510151542 62 61 3.0 9.0 0.00 0.00 0.00 38 1018.6
20260510150035 61 10 3.0 9.0 0.00 0.00 0.00 37 1018.6
20260510144534 60 46 4.0 11.0 0.00 0.00 0.00 37 1018.7
20260510143034 60 14 5.0 9.0 0.00 0.00 0.00 40 1018.8
20260510141536 59 23 4.0 9.0 0.00 0.00 0.00 42 1018.9
20260510140030 58 49 3.0 7.0 0.00 0.00 0.00 44 1018.8
20260510134529 57 59 3.0 9.0 0.00 0.00 0.00 44 1018.7
20260510133030 56 45 1.0 8.0 0.00 0.00 0.00 46 1018.4
20260510131524 56 20 2.0 6.0 0.00 0.00 0.00 45 1018.2
20260510130023 56 34 2.0 5.0 0.00 0.00 0.00 45 1018.0
20260510124520 55 27 3.0 6.0 0.00 0.00 0.00 46 1017.7
20260510123019 55 340 1.0 5.0 0.00 0.00 0.00 47 1017.3
20260510121516 55 25 4.0 7.0 0.00 0.00 0.00 47 1017.3
20260510120013 55 12 3.0 6.0 0.00 0.00 0.00 47 1016.9
20260510114511 56 359 3.0 6.0 0.00 0.00 0.00 47 1016.4
20260510113008 56 4 2.0 6.0 0.00 0.00 0.00 44 1016.4
20260510111513 57 343 1.0 8.0 0.00 0.01 0.00 44 1016.2
20260510110006 57 50 4.0 8.0 0.00 0.01 0.00 44 1015.8
20260510104502 57 344 2.0 6.0 0.00 0.01 0.00 45 1016.1
20260510103059 57 343 2.0 4.0 0.00 0.01 0.00 45 1015.9
20260510101600 57 324 3.0 7.0 0.00 0.01 0.00 45 1015.3
20260510100125 58 38 3.0 8.0 0.00 0.01 0.00 45 1015.3
20260510094556 58 12 4.0 8.0 0.00 0.01 0.00 45 1014.8
20260510093053 58 347 3.0 8.0 0.00 0.01 0.00 47 1014.8
20260510091548 58 10 3.0 7.0 0.00 0.01 0.00 48 1014.7
20260510090046 59 327 4.0 7.0 0.00 0.01 0.00 49 1014.5
20260510084542 60 8 3.0 8.0 0.00 0.01 0.00 50 1014.1
20260510083046 61 24 3.0 8.0 0.00 0.01 0.00 46 1014.2
20260510081544 61 4 2.0 7.0 0.00 0.01 0.00 47 1014.1
20260510080039 61 39 3.0 10.0 0.00 0.01 0.00 49 1013.6
20260510074534 61 328 1.0 6.0 0.00 0.01 0.00 53 1013.5
20260510073031 61 14 1.0 5.0 0.00 0.01 0.00 54 1013.1
20260510071537 62 359 0.0 3.0 0.00 0.01 0.00 55 1013.1
20260510070027 62 346 1.0 4.0 0.00 0.01 0.00 56 1012.9
20260510064524 63 14 1.0 2.0 0.00 0.01 0.00 57 1012.5
20260510063024 64 14 1.0 3.0 0.00 0.01 0.00 55 1012.5
20260510061534 64 16 2.0 5.0 0.00 0.01 0.00 55 1012.3
20260510060016 64 324 1.0 4.0 0.00 0.01 0.00 58 1012.1
20260510054513 65 350 0.0 2.0 0.00 0.01 0.00 58 1011.7
20260510053009 65 350 0.0 2.0 0.00 0.01 0.00 57 1011.5
20260510051506 66 359 0.0 1.0 0.00 0.01 0.01 55 1011.2
20260510050004 66 359 0.0 3.0 0.00 0.01 0.01 54 1011.0
20260510044504 67 19 1.0 5.0 0.00 0.01 0.01 53 1010.7
20260510043002 67 35 2.0 7.0 0.00 0.01 0.01 54 1010.7
20260510041600 67 54 0.0 2.0 0.00 0.01 0.01 54 1010.6
20260510034604 67 8 2.0 3.0 0.00 0.01 0.01 54 1009.7
20260510033113 68 66 1.0 3.0 0.00 0.01 0.01 53 1009.4
20260510031558 69 337 2.0 7.0 0.00 0.01 0.01 51 1009.0
20260510030052 70 54 2.0 8.0 0.00 0.01 0.01 48 1009.1
20260510024557 69 13 2.0 7.0 0.00 0.01 0.01 50 1009.1
20260510023049 69 261 2.0 5.0 0.00 0.01 0.01 53 1008.6
20260510021545 70 305 0.0 0.0 0.00 0.01 0.01 51 1007.8
20260510020045 71 306 0.0 2.0 0.00 0.01 0.01 49 1007.2
20260510014541 71 307 1.0 4.0 0.00 0.01 0.01 48 1007.0
20260510013039 72 310 1.0 6.0 0.00 0.01 0.01 47 1006.9
20260510011550 73 347 1.0 11.0 0.00 0.01 0.01 46 1006.8
20260510010037 73 336 3.0 11.0 0.00 0.01 0.01 46 1006.7
20260510004540 74 359 3.0 17.0 0.00 0.01 0.01 45 1006.2
20260510003058 75 30 6.0 13.0 0.00 0.01 0.01 46 1006.1
20260510001539 75 313 2.0 8.0 0.00 0.01 0.01 47 1005.9
20260510000037 75 325 2.0 7.0 0.00 0.01 0.01 46 1005.6
20260509234540 76 12 2.0 8.0 0.00 0.01 0.01 44 1005.7
20260509233033 77 27 4.0 9.0 0.00 0.01 0.01 44 1005.6
20260509231545 77 318 3.0 10.0 0.00 0.01 0.01 43 1005.4
20260509230035 77 348 6.0 13.0 0.00 0.01 0.01 41 1005.4
20260509224534 77 4 5.0 10.0 0.00 0.01 0.01 43 1005.3
20260509223032 78 304 3.0 8.0 0.00 0.01 0.01 41 1005.2
20260509221531 80 306 9.0 20.0 0.00 0.01 0.01 38 1005.2
20260509220032 83 253 4.0 10.0 0.00 0.01 0.01 32 1004.3
20260509214531 84 233 6.0 14.0 0.00 0.01 0.01 30 1004.0
20260509213030 84 279 3.0 12.0 0.00 0.01 0.01 30 1004.0
20260509211530 85 238 5.0 14.0 0.00 0.07 0.01 31 1003.9
20260509210028 85 264 9.0 16.0 0.00 0.07 0.01 28 1004.1
20260509204529 85 275 8.0 20.0 0.00 0.07 0.01 31 1004.0
20260509203033 85 256 9.0 18.0 0.00 0.07 0.01 31 1004.1
20260509201523 85 225 7.0 13.0 0.00 0.10 0.01 32 1004.2
20260509200023 83 160 4.0 10.0 0.00 0.10 0.01 33 1004.3
20260509194526 83 218 8.0 16.0 0.00 0.10 0.01 35 1004.5
20260509193019 83 218 4.0 15.0 0.00 0.10 0.01 36 1004.8
20260509191516 83 215 3.0 11.0 0.00 0.10 0.01 40 1004.9
20260509190017 83 227 5.0 14.0 0.00 0.10 0.01 39 1005.1
20260509184512 83 248 3.0 11.0 0.00 0.10 0.01 42 1005.3
20260509183019 82 210 5.0 12.0 0.00 0.10 0.01 41 1005.5
20260509181506 80 250 5.0 14.0 0.00 0.10 0.01 42 1005.7
20260509180004 80 254 5.0 10.0 0.00 0.10 0.01 44 1005.8